This is the latest recevied weather packets stored in our database for station/object EA3AGY-13. If no packets are shown the sender has not sent any weather packets the latest 10 day(s).
| Time | Temp. | Humidity | Pressure | Rain* | Wind** | Luminosity | Snow |
|---|---|---|---|---|---|---|---|
| 1777844625 | 10.56° C | 34% | 1013.5 hPa | 0 mm | - | - | - |
| 1777844022 | 10.56° C | 34% | 1013.5 hPa | 0 mm | - | - | - |
| 1777842819 | 11.11° C | 34% | 1013.6 hPa | 0 mm | - | - | - |
| 1777841010 | 11.11° C | 33% | 1013.6 hPa | 0 mm | - | - | - |
| 1777840408 | 10° C | 33% | 1013.6 hPa | 0 mm | - | - | - |
| 1777839204 | 11.11° C | 33% | 1013.5 hPa | 0 mm | - | - | - |
| 1777838601 | 11.11° C | 33% | 1013.5 hPa | 0 mm | - | - | - |
| 1777837999 | 10° C | 33% | 1013.3 hPa | 0 mm | - | - | - |
| 1777836794 | 11.11° C | 32% | 1013.1 hPa | 0 mm | - | - | - |
| 1777834385 | 12.22° C | 33% | 1012.8 hPa | 0 mm | - | - | - |
| 1777832577 | 12.22° C | 32% | 1012.8 hPa | 0 mm | - | - | - |
| 1777831979 | 12.22° C | 31% | 1012.7 hPa | 0 mm | - | - | - |
| 1777830168 | 12.22° C | 31% | 1012.8 hPa | 0 mm | - | - | - |
| 1777829565 | 12.22° C | 31% | 1012.8 hPa | 0 mm | - | - | - |
| 1777828361 | 12.22° C | 31% | 1012.8 hPa | 0 mm | - | - | - |
| 1777827760 | 12.78° C | 30% | 1012.9 hPa | 0 mm | - | - | - |
| 1777827156 | 12.78° C | 29% | 1012.9 hPa | 0 mm | - | - | - |
| 1777826553 | 12.78° C | 30% | 1013 hPa | 0 mm | - | - | - |
| 1777824146 | 13.89° C | 28% | 1013 hPa | 0 mm | - | - | - |
| 1777823542 | 14.44° C | 27% | 1013 hPa | 0 mm | - | - | - |
| 1777822337 | 14.44° C | 26% | 1013.1 hPa | 0 mm | - | - | - |
| 1777820530 | 16.67° C | 28% | 1013.1 hPa | 0 mm | - | - | - |
| 1777819929 | 16.11° C | 30% | 1013.2 hPa | 0 mm | - | - | - |
| 1777818723 | 15° C | 23% | 1013.3 hPa | 0 mm | - | - | - |
| 1777818121 | 15.56° C | 28% | 1013.4 hPa | 0 mm | - | - | - |
* Rain since midnight (hover to see other rain measurements)
** Current wind speed in m/s (hover to see current wind gust speed)